SHT22B EGLL-EGJB

Flight info

Callsign SHT22B
Flight time 0h 36m
Altitude 23000
Route GASGU N514 EVTES N621 SAM/N0394F220 N63 LELNA
Aircraft A319/M-SDE3FGHIRWY/LB1

Departure

Time 2026-04-25 18:26
Airport London Heathrow Airport (EGLL)

Arrival

Time 2026-04-25 19:03
Airport Guernsey Airport (EGJB)
Time Latitude Longitude Altitude Speed Heading
2026-04-25 18:10 51.47394 -0.48757 86 ft 0 kts 179°
2026-04-25 18:18 51.47418 -0.48757 86 ft 4 kts 179°
2026-04-25 18:18 51.47445 -0.48758 86 ft 4 kts 180°
2026-04-25 18:18 51.47467 -0.48758 87 ft 4 kts 164°
2026-04-25 18:19 51.47485 -0.48778 88 ft 4 kts 102°
2026-04-25 18:19 51.47486 -0.48816 88 ft 2 kts 90°
2026-04-25 18:19 51.47486 -0.48819 87 ft 0 kts 90°
2026-04-25 18:21 51.47486 -0.48816 88 ft 2 kts 90°
2026-04-25 18:21 51.47486 -0.48780 88 ft 5 kts 90°
2026-04-25 18:22 51.47487 -0.48708 86 ft 8 kts 90°
2026-04-25 18:22 51.47487 -0.48641 86 ft 10 kts 90°
2026-04-25 18:22 51.47470 -0.48487 89 ft 12 kts 143°
2026-04-25 18:22 51.47380 -0.48473 86 ft 14 kts 180°
2026-04-25 18:23 51.47276 -0.48473 86 ft 16 kts 180°
2026-04-25 18:23 51.47173 -0.48474 86 ft 13 kts 180°
2026-04-25 18:23 51.47074 -0.48474 86 ft 16 kts 180°
2026-04-25 18:23 51.46994 -0.48473 86 ft 10 kts 178°
2026-04-25 18:24 51.46933 -0.48470 86 ft 9 kts 178°
2026-04-25 18:24 51.46863 -0.48467 86 ft 10 kts 179°
2026-04-25 18:24 51.46783 -0.48465 86 ft 13 kts 179°
2026-04-25 18:24 51.46683 -0.48464 86 ft 11 kts 180°
2026-04-25 18:25 51.46598 -0.48465 89 ft 14 kts 181°
2026-04-25 18:25 51.46496 -0.48466 87 ft 15 kts 178°
2026-04-25 18:25 51.46474 -0.48432 88 ft 5 kts 69°
2026-04-25 18:25 51.46476 -0.48371 88 ft 7 kts 87°
2026-04-25 18:26 51.46484 -0.48139 90 ft 48 kts 88°
2026-04-25 18:26 51.46486 -0.47266 87 ft 108 kts 89°
2026-04-25 18:26 51.46492 -0.45765 93 ft 160 kts 89°
2026-04-25 18:26 51.46497 -0.43959 690 ft 159 kts 89°
2026-04-25 18:27 51.46495 -0.42168 1398 ft 163 kts 94°
2026-04-25 18:27 51.45999 -0.40409 1791 ft 188 kts 127°
2026-04-25 18:27 51.45171 -0.38623 2196 ft 212 kts 124°
2026-04-25 18:27 51.44267 -0.36566 2691 ft 238 kts 124°
2026-04-25 18:28 51.43164 -0.34433 3435 ft 257 kts 140°
2026-04-25 18:28 51.41590 -0.33074 4444 ft 266 kts 163°
2026-04-25 18:28 51.39725 -0.32845 5418 ft 276 kts 188°
2026-04-25 18:29 51.36488 -0.35965 5977 ft 277 kts 224°
2026-04-25 18:29 51.35078 -0.38065 6013 ft 277 kts 224°
2026-04-25 18:30 51.30909 -0.44546 7946 ft 282 kts 236°
2026-04-25 18:30 51.30031 -0.47339 8941 ft 283 kts 253°
2026-04-25 18:30 51.29488 -0.50389 9962 ft 286 kts 256°
2026-04-25 18:30 51.28934 -0.53511 10602 ft 302 kts 255°
2026-04-25 18:31 51.28330 -0.56860 10946 ft 325 kts 255°
2026-04-25 18:31 51.27670 -0.60392 11591 ft 335 kts 254°
2026-04-25 18:31 51.26983 -0.63934 12397 ft 339 kts 254°
2026-04-25 18:31 51.26270 -0.67550 13237 ft 343 kts 254°
2026-04-25 18:32 51.25548 -0.71204 14062 ft 346 kts 254°
2026-04-25 18:32 51.24825 -0.74874 14787 ft 349 kts 254°
2026-04-25 18:32 51.24094 -0.78605 15511 ft 353 kts 254°
2026-04-25 18:32 51.23355 -0.82380 16243 ft 356 kts 254°
2026-04-25 18:33 51.22621 -0.86105 16962 ft 359 kts 254°
2026-04-25 18:33 51.21867 -0.89926 17685 ft 363 kts 254°
2026-04-25 18:33 51.21073 -0.93776 18401 ft 367 kts 250°
2026-04-25 18:33 51.19908 -0.97435 19045 ft 372 kts 239°
2026-04-25 18:34 51.18352 -1.00776 19697 ft 376 kts 234°
2026-04-25 18:34 51.16735 -1.04077 20335 ft 379 kts 234°
2026-04-25 18:34 51.15104 -1.07410 20964 ft 383 kts 234°
2026-04-25 18:34 51.13479 -1.10740 21571 ft 386 kts 235°
2026-04-25 18:35 51.11822 -1.14134 22176 ft 390 kts 235°
2026-04-25 18:35 51.10148 -1.17561 22747 ft 395 kts 235°
2026-04-25 18:35 51.08416 -1.20971 23139 ft 399 kts 232°
2026-04-25 18:35 51.06324 -1.23973 22218 ft 413 kts 215°
2026-04-25 18:36 51.03799 -1.26089 22267 ft 400 kts 208°
2026-04-25 18:36 51.01318 -1.28082 22493 ft 398 kts 212°
2026-04-25 18:36 50.98985 -1.30316 22499 ft 395 kts 216°
2026-04-25 18:36 50.96702 -1.32776 22751 ft 395 kts 218°
2026-04-25 18:37 50.94393 -1.35174 23017 ft 399 kts 214°
2026-04-25 18:37 50.91969 -1.37370 23185 ft 401 kts 212°
2026-04-25 18:37 50.89508 -1.39457 23220 ft 402 kts 211°
2026-04-25 18:37 50.87004 -1.41474 23215 ft 403 kts 209°
2026-04-25 18:38 50.84484 -1.43441 23216 ft 403 kts 208°
2026-04-25 18:38 50.82001 -1.45362 23217 ft 402 kts 209°
2026-04-25 18:38 50.79484 -1.47325 23219 ft 402 kts 209°
2026-04-25 18:38 50.76977 -1.49293 23219 ft 402 kts 209°
2026-04-25 18:39 50.74461 -1.51278 23221 ft 402 kts 209°
2026-04-25 18:39 50.71965 -1.53253 23223 ft 402 kts 209°
2026-04-25 18:39 50.69456 -1.55241 23223 ft 402 kts 209°
2026-04-25 18:39 50.66981 -1.57207 23222 ft 402 kts 209°
2026-04-25 18:40 50.64467 -1.59201 23220 ft 402 kts 209°
2026-04-25 18:40 50.61959 -1.61185 23206 ft 402 kts 209°
2026-04-25 18:40 50.59451 -1.63163 23211 ft 402 kts 209°
2026-04-25 18:40 50.56944 -1.65133 23212 ft 402 kts 209°
2026-04-25 18:41 50.54467 -1.67078 23211 ft 401 kts 209°
2026-04-25 18:41 50.51970 -1.69042 23212 ft 401 kts 209°
2026-04-25 18:41 50.49471 -1.71003 23210 ft 401 kts 209°
2026-04-25 18:41 50.46966 -1.72968 23212 ft 402 kts 209°
2026-04-25 18:42 50.44459 -1.74931 23216 ft 402 kts 209°
2026-04-25 18:42 50.43647 -1.75566 23217 ft 402 kts 209°
2026-04-25 18:42 50.39451 -1.78830 23207 ft 401 kts 208°
2026-04-25 18:42 50.36947 -1.80777 23210 ft 401 kts 208°
2026-04-25 18:43 50.34449 -1.82722 23211 ft 401 kts 208°
2026-04-25 18:43 50.31979 -1.84644 23203 ft 400 kts 208°
2026-04-25 18:43 50.29483 -1.86578 23209 ft 400 kts 208°
2026-04-25 18:43 50.26991 -1.88505 23212 ft 399 kts 208°
2026-04-25 18:44 50.24489 -1.90442 23215 ft 399 kts 208°
2026-04-25 18:44 50.22005 -1.92368 23174 ft 398 kts 208°
2026-04-25 18:44 50.19556 -1.94268 22894 ft 395 kts 208°
2026-04-25 18:44 50.17088 -1.96178 22616 ft 393 kts 208°
2026-04-25 18:45 50.14658 -1.98056 22357 ft 393 kts 208°
2026-04-25 18:45 50.12201 -1.99947 22091 ft 391 kts 208°
2026-04-25 18:45 50.09761 -2.01815 21831 ft 390 kts 208°
2026-04-25 18:45 50.07324 -2.03682 21573 ft 388 kts 208°
2026-04-25 18:46 50.04912 -2.05535 21316 ft 387 kts 208°
2026-04-25 18:46 50.02506 -2.07383 21051 ft 383 kts 208°
2026-04-25 18:46 50.00159 -2.09207 20604 ft 378 kts 211°
2026-04-25 18:46 49.97998 -2.11480 20179 ft 373 kts 221°
2026-04-25 18:47 49.96158 -2.14287 19642 ft 368 kts 231°
2026-04-25 18:47 49.94474 -2.17262 19091 ft 366 kts 231°
2026-04-25 18:47 49.92788 -2.20222 18547 ft 364 kts 230°
2026-04-25 18:47 49.91112 -2.23146 17955 ft 361 kts 230°
2026-04-25 18:48 49.89293 -2.25805 17371 ft 361 kts 215°
2026-04-25 18:48 49.86999 -2.27344 16824 ft 361 kts 194°
2026-04-25 18:48 49.84494 -2.27631 16275 ft 359 kts 181°
2026-04-25 18:48 49.82000 -2.27593 15712 ft 357 kts 180°
2026-04-25 18:49 49.79531 -2.27543 15159 ft 354 kts 181°
2026-04-25 18:49 49.77106 -2.27493 14639 ft 352 kts 181°
2026-04-25 18:49 49.74647 -2.27443 14111 ft 349 kts 181°
2026-04-25 18:49 49.72220 -2.27387 13540 ft 346 kts 180°
2026-04-25 18:50 49.69826 -2.27354 12991 ft 343 kts 180°
2026-04-25 18:50 49.67449 -2.27341 12450 ft 340 kts 182°
2026-04-25 18:50 49.65160 -2.27953 11933 ft 334 kts 202°
2026-04-25 18:50 49.63223 -2.29832 11421 ft 329 kts 225°
2026-04-25 18:51 49.61912 -2.32622 11261 ft 314 kts 239°
2026-04-25 18:51 49.61547 -2.33566 11218 ft 309 kts 240°
2026-04-25 18:51 49.60139 -2.37294 11012 ft 295 kts 240°
2026-04-25 18:51 49.58793 -2.40899 10600 ft 290 kts 240°
2026-04-25 18:52 49.57793 -2.43592 10250 ft 289 kts 240°
2026-04-25 18:52 49.56799 -2.46284 9873 ft 288 kts 240°
2026-04-25 18:52 49.56146 -2.48059 9613 ft 287 kts 240°
2026-04-25 18:52 49.55164 -2.50728 9231 ft 286 kts 240°
2026-04-25 18:53 49.54187 -2.53383 8848 ft 284 kts 240°
2026-04-25 18:53 49.53214 -2.56024 8483 ft 283 kts 240°
2026-04-25 18:53 49.52242 -2.58657 8118 ft 281 kts 240°
2026-04-25 18:53 49.50968 -2.62110 7645 ft 280 kts 241°
2026-04-25 18:54 49.50206 -2.66889 7049 ft 277 kts 265°
2026-04-25 18:54 49.50032 -2.69837 6757 ft 273 kts 266°
2026-04-25 18:54 49.49850 -2.72701 6632 ft 262 kts 266°
2026-04-25 18:55 49.49673 -2.75390 6507 ft 251 kts 265°
2026-04-25 18:55 49.49496 -2.78023 6360 ft 244 kts 265°
2026-04-25 18:55 49.49322 -2.80597 6039 ft 240 kts 265°
2026-04-25 18:55 49.49156 -2.83137 5718 ft 236 kts 265°
2026-04-25 18:56 49.48996 -2.85580 5589 ft 220 kts 266°
2026-04-25 18:56 49.48851 -2.87822 5453 ft 208 kts 265°
2026-04-25 18:56 49.48711 -2.89999 5236 ft 202 kts 265°
2026-04-25 18:56 49.48574 -2.92138 4835 ft 199 kts 265°
2026-04-25 18:57 49.48435 -2.94262 4380 ft 198 kts 263°
2026-04-25 18:57 49.47896 -2.96189 3921 ft 200 kts 227°
2026-04-25 18:57 49.46690 -2.97224 3571 ft 202 kts 194°
2026-04-25 18:57 49.45760 -2.97378 3354 ft 203 kts 178°
2026-04-25 18:58 49.43985 -2.96524 2936 ft 203 kts 145°
2026-04-25 18:58 49.42584 -2.92945 2380 ft 197 kts 96°
2026-04-25 18:58 49.42598 -2.90851 2107 ft 195 kts 87°
2026-04-25 18:59 49.42726 -2.86726 2013 ft 194 kts 88°
2026-04-25 18:59 49.42850 -2.82578 2006 ft 195 kts 88°
2026-04-25 19:00 49.42974 -2.78419 2011 ft 195 kts 88°
2026-04-25 19:00 49.43034 -2.76355 2009 ft 187 kts 88°
2026-04-25 19:01 49.43140 -2.72735 1757 ft 156 kts 88°
2026-04-25 19:01 49.43186 -2.71129 1564 ft 144 kts 88°
2026-04-25 19:01 49.43228 -2.69679 1389 ft 131 kts 88°
2026-04-25 19:01 49.43267 -2.68308 1220 ft 126 kts 88°
2026-04-25 19:02 49.43342 -2.65669 898 ft 122 kts 87°
2026-04-25 19:02 49.43381 -2.64382 696 ft 122 kts 85°
2026-04-25 19:02 49.43416 -2.63066 595 ft 121 kts 87°
2026-04-25 19:03 49.43472 -2.60932 318 ft 116 kts 85°
2026-04-25 19:03 49.43506 -2.59812 324 ft 27 kts 88°
2026-04-25 19:03 49.43517 -2.59514 329 ft 29 kts 86°
2026-04-25 19:04 49.43459 -2.59198 334 ft 9 kts 175°
2026-04-25 19:04 49.43387 -2.59213 331 ft 12 kts 218°
2026-04-25 19:05 49.43369 -2.59423 330 ft 10 kts 268°
2026-04-25 19:05 49.43339 -2.59631 327 ft 10 kts 181°
2026-04-25 19:05 49.43277 -2.59623 327 ft 3 kts 178°
2026-04-25 19:06 49.43264 -2.59622 327 ft 2 kts 178°
2026-04-25 19:06 49.43260 -2.59622 327 ft 0 kts 178°